Stations météo

réclame
Mon MeteoGroup
Ronchi Dei Legionari, Italie (16108): Température de l'air & dewpoint: 13.06.2018 22:00:00 - 19.06.2018 22:00:00 (CEST)Ronchi Dei Legionari, Italie (16108): Vitesse du vent: 13.06.2018 22:00:00 - 19.06.2018 22:00:00 (CEST)Ronchi Dei Legionari, Italie (16108): Direction du vent: 13.06.2018 22:00:00 - 19.06.2018 22:00:00 (CEST)Ronchi Dei Legionari, Italie (16108): reduced air pressure: 13.06.2018 22:00:00 - 19.06.2018 22:00:00 (CEST)Ronchi Dei Legionari, Italie (16108): visibility: 13.06.2018 22:00:00 - 19.06.2018 22:00:00 (CEST)Ronchi Dei Legionari, Italie (16108): Quantités de précipitations: 13.06.2018 22:00:00 - 19.06.2018 22:00:00 (CEST)
Date & Time tt [°C] td [°C] ff [km/h] ff [knt] dd ppp [hPa] vv [km] rr [mm]
19.06.2018 22:00:00 26,0 14,0 5 3 ESE - 10 -
19.06.2018 21:00:00 28,0 14,0 4 2 - - 10 -
19.06.2018 20:00:00 29,4 14,4 11 6 SSW 1018,0 10 -
19.06.2018 19:00:00 31,0 13,0 11 6 W - 10 -
19.06.2018 18:00:00 31,0 12,0 15 8 WSW - 10 -
19.06.2018 17:00:00 31,0 12,3 13 7 WSW 1017,8 10 0,0
19.06.2018 16:00:00 31,0 12,0 15 8 WSW - 10 -
19.06.2018 15:00:00 31,0 11,0 8 4 WSW - 10 -
19.06.2018 14:00:00 30,5 12,0 8 4 WNW 1019,0 10 -
19.06.2018 13:00:00 30,0 11,0 9 5 WNW - 10 -
19.06.2018 12:00:00 29,0 11,0 11 6 W - 10 -
19.06.2018 11:00:00 28,5 14,0 9 5 W 1020,0 10 0,0
19.06.2018 10:00:00 27,0 12,0 5 3 W - 10 -
19.06.2018 09:00:00 25,0 12,0 4 2 - - 10 -
19.06.2018 08:00:00 21,8 16,1 4 2 - 1019,9 10 -
19.06.2018 07:00:00 18,0 14,0 4 2 NNE - 10 -
19.06.2018 06:00:00 16,0 13,0 2 1 - - 10 -
19.06.2018 05:00:00 15,6 13,2 5 3 NNE 1018,7 10 0,0
19.06.2018 04:00:00 16,0 14,0 5 3 ENE - 10 -
19.06.2018 03:00:00 17,0 15,0 5 3 WNW - 10 -
19.06.2018 02:00:00 16,9 15,4 5 3 W 1018,3 10 -
19.06.2018 01:00:00 18,0 15,0 5 3 N - 10 -
19.06.2018 00:00:00 18,0 16,0 5 3 N - 10 -
18.06.2018 23:00:00 20,7 14,2 5 3 E 1017,9 10 0,0
18.06.2018 22:00:00 22,0 15,0 8 4 ENE - 10 -
18.06.2018 21:00:00 22,0 16,0 4 2 - - 10 -
18.06.2018 20:00:00 21,7 16,2 11 6 W 1015,7 10 -
18.06.2018 19:00:00 28,0 14,0 21 11 SSE - 10 -
18.06.2018 18:00:00 31,0 14,0 16 9 WSW - 10 -
18.06.2018 17:00:00 31,2 13,6 9 5 - 1014,1 10 0,0
18.06.2018 16:00:00 31,0 10,0 9 5 - - 10 -
18.06.2018 15:00:00 31,0 12,0 11 6 W - 10 -
18.06.2018 14:00:00 30,7 9,8 9 5 NW 1015,4 10 -
18.06.2018 13:00:00 30,0 13,0 5 3 - - 10 -
18.06.2018 12:00:00 27,0 17,0 11 6 WNW - 10 -
18.06.2018 11:00:00 25,6 16,9 5 3 NW 1016,0 10 0,0
18.06.2018 10:00:00 23,0 16,0 5 3 NW - 10 -
18.06.2018 09:00:00 22,0 16,0 5 3 NW - 10 -
18.06.2018 08:00:00 20,4 15,3 2 1 - 1015,3 10 -
18.06.2018 07:00:00 19,0 15,0 8 4 NNW - 10 -
18.06.2018 06:00:00 17,0 14,0 5 3 N - 10 -
18.06.2018 05:00:00 17,3 14,3 2 1 - 1014,2 10 0,0
18.06.2018 04:00:00 17,0 14,0 4 2 - - 10 -
18.06.2018 03:00:00 19,0 15,0 5 3 NNE - 10 -
18.06.2018 02:00:00 19,0 15,1 5 3 N 1014,5 10 -
18.06.2018 01:00:00 19,0 16,0 9 5 NNW - 10 -
18.06.2018 00:00:00 21,0 16,0 9 5 N - 10 -
17.06.2018 23:00:00 22,3 16,2 11 6 NNE 1014,2 10 0,0
17.06.2018 22:00:00 24,0 15,0 5 3 NE - 10 -
17.06.2018 21:00:00 26,0 14,0 8 4 E - 10 -
17.06.2018 20:00:00 28,4 14,0 9 5 E 1012,5 10 -
17.06.2018 19:00:00 29,0 13,0 4 2 - - 10 -
17.06.2018 18:00:00 29,0 13,0 8 4 SW - 10 -
17.06.2018 17:00:00 29,1 13,4 11 6 S 1012,6 10 0,0
17.06.2018 16:00:00 30,0 14,0 13 7 SE - 10 -
17.06.2018 15:00:00 29,0 12,0 4 2 - - 10 -
17.06.2018 14:00:00 27,7 13,4 8 4 WSW 1013,4 10 -
17.06.2018 13:00:00 28,0 12,0 4 2 - - 10 -
17.06.2018 12:00:00 28,0 12,0 4 2 - - 10 -
17.06.2018 11:00:00 28,1 12,2 5 3 - 1013,5 10 0,0
17.06.2018 10:00:00 27,0 12,0 8 4 NNE - 10 -
17.06.2018 09:00:00 24,0 14,0 8 4 N - 10 -
17.06.2018 08:00:00 22,4 14,2 4 2 - 1013,2 10 -
17.06.2018 07:00:00 19,0 14,0 8 4 N - 10 -
17.06.2018 06:00:00 16,0 13,0 9 5 N - 10 -
17.06.2018 05:00:00 15,1 13,1 8 4 N 1012,9 10 0,0
17.06.2018 04:00:00 18,0 13,0 5 3 E - 10 -
17.06.2018 03:00:00 16,0 14,0 8 4 N - 10 -
17.06.2018 02:00:00 17,0 14,4 8 4 N 1013,3 10 -
17.06.2018 01:00:00 17,0 14,0 5 3 N - 10 -
17.06.2018 00:00:00 20,0 14,0 5 3 ENE - 10 -
16.06.2018 23:00:00 20,3 14,5 4 2 ENE 1012,9 10 0,0
16.06.2018 22:00:00 22,0 13,0 8 4 E - 10 -
16.06.2018 21:00:00 25,0 13,0 9 5 E - 10 -
16.06.2018 20:00:00 26,8 13,1 13 7 ESE 1011,0 10 -
16.06.2018 19:00:00 28,0 13,0 9 5 E - 10 -
16.06.2018 18:00:00 29,0 13,0 8 4 NNE - 10 -
16.06.2018 17:00:00 28,5 12,1 8 4 ENE 1011,1 10 0,0
16.06.2018 16:00:00 29,0 12,0 4 2 - - 10 -
16.06.2018 15:00:00 29,0 11,0 8 4 SE - 10 -
16.06.2018 14:00:00 29,3 11,5 8 4 - 1011,6 10 -
16.06.2018 13:00:00 28,0 10,0 9 5 - - 10 -
16.06.2018 12:00:00 28,0 11,0 11 6 NNW - 10 -
16.06.2018 11:00:00 27,1 11,0 9 5 N 1012,5 10 0,0
16.06.2018 10:00:00 25,0 12,0 9 5 N - 10 -
16.06.2018 09:00:00 23,0 13,0 9 5 N - 10 -
16.06.2018 08:00:00 21,1 12,0 8 4 N 1012,9 10 -
16.06.2018 07:00:00 18,0 11,0 8 4 NNE - 10 -
16.06.2018 06:00:00 15,0 12,0 8 4 N - 10 -
16.06.2018 05:00:00 15,8 11,4 9 5 N 1012,8 10 0,0
16.06.2018 04:00:00 16,0 12,0 9 5 N - 10 -
16.06.2018 03:00:00 16,0 13,0 5 3 N - 10 -
16.06.2018 02:00:00 15,8 13,5 4 2 N 1013,3 10 -
16.06.2018 01:00:00 17,0 13,0 5 3 N - 10 -
16.06.2018 00:00:00 20,0 13,0 4 2 NE - 10 -
15.06.2018 23:00:00 22,4 11,1 5 3 WNW 1012,9 10 0,0
15.06.2018 22:00:00 23,0 11,0 9 5 E - 10 -
15.06.2018 21:00:00 24,0 11,0 15 8 E - 10 -
15.06.2018 20:00:00 25,1 11,6 21 11 ESE 1011,1 10 -
15.06.2018 19:00:00 26,0 12,0 24 13 E - 10 -
15.06.2018 18:00:00 27,0 11,0 16 9 ENE - 10 -
15.06.2018 17:00:00 28,0 11,9 22 12 ESE 1010,5 10 0,0
15.06.2018 16:00:00 27,0 12,0 29 16 ESE - 10 -
15.06.2018 15:00:00 28,0 11,0 21 11 ESE - 10 -
15.06.2018 14:00:00 26,2 10,6 8 4 - 1011,2 10 -
15.06.2018 13:00:00 25,0 11,0 5 3 - - 10 -
15.06.2018 12:00:00 24,0 9,0 5 3 - - 10 -
15.06.2018 11:00:00 22,4 11,2 2 1 - 1011,8 10 0,0
15.06.2018 10:00:00 20,0 13,0 2 1 - - 10 -
15.06.2018 09:00:00 18,0 14,0 4 2 - - 10 -
15.06.2018 08:00:00 17,7 14,3 4 2 - 1011,8 10 -
15.06.2018 07:00:00 16,0 14,0 4 2 - - 10 -
15.06.2018 06:00:00 16,0 13,0 2 1 - - 10 -
15.06.2018 05:00:00 15,6 13,0 8 4 W 1011,4 10 0,0
15.06.2018 04:00:00 16,0 12,0 2 1 - - 10 -
15.06.2018 03:00:00 17,0 12,0 4 2 WSW - 10 -
15.06.2018 02:00:00 17,2 11,0 5 3 ENE 1011,2 10 -
15.06.2018 01:00:00 20,0 10,0 5 3 ENE - 10 -
15.06.2018 00:00:00 20,0 11,0 8 4 NNE - 10 -
14.06.2018 23:00:00 20,2 11,1 9 5 E 1011,0 10 0,0
14.06.2018 22:00:00 21,0 11,0 8 4 ESE - 10 -
14.06.2018 21:00:00 22,0 12,0 13 7 E - 10 -
14.06.2018 20:00:00 23,3 11,5 22 12 E 1009,2 10 -
14.06.2018 19:00:00 25,0 12,0 24 13 E - 10 -
14.06.2018 18:00:00 26,0 12,0 24 13 ESE - 10 -
14.06.2018 17:00:00 26,2 15,5 21 11 ESE 1008,2 10 0,0
14.06.2018 16:00:00 26,0 13,0 16 9 ESE - 10 -
14.06.2018 15:00:00 27,0 13,0 11 6 E - 10 -
14.06.2018 14:00:00 25,6 11,9 8 4 - 1008,8 10 -
14.06.2018 13:00:00 25,0 11,0 13 7 ESE - 10 -
14.06.2018 12:00:00 25,0 12,0 8 4 E - 10 -
14.06.2018 11:00:00 23,8 12,8 4 2 - 1009,2 10 0,0
14.06.2018 10:00:00 23,0 13,0 5 3 SSW - 10 -
14.06.2018 09:00:00 22,0 15,0 2 1 - - 10 -
14.06.2018 08:00:00 20,4 16,2 2 1 - 1008,1 10 -
14.06.2018 07:00:00 20,0 16,0 2 1 - - 10 -
14.06.2018 06:00:00 19,0 15,0 5 3 W - 10 -
14.06.2018 05:00:00 19,8 14,6 5 3 WSW 1007,0 10 0,0
14.06.2018 04:00:00 20,0 16,0 4 2 - - 10 -
14.06.2018 03:00:00 19,0 17,0 2 1 - - 10 -
14.06.2018 02:00:00 19,5 16,7 2 1 - 1006,6 10 -
14.06.2018 01:00:00 20,0 17,0 2 1 - - 10 -
14.06.2018 00:00:00 20,0 18,0 4 2 - - 10 -
13.06.2018 23:00:00 19,5 16,9 4 2 NNW 1005,9 10 0,0
13.06.2018 22:00:00 21,0 16,0 9 5 ESE - 10 -

tt = Température de l'air
td = dewpoint
ff = Vitesse du vent
dd = Direction du vent
ppp = reduced air pressure
vv = visibility
rr = Quantités de précipitations

stations d'obs. à proximité